GW3329 Weather Reports


time (UTC)temp
C
wind
direction
speed
KPH
gust
KPH
rain 1hr
cm
rain 24hr
cm
rain mn
cm
humidity
%
barometer
mb
20260503223405 16 24 3.2 6.4 0.00 0.00 0.00 68 1017.1
20260503222859 16 210 4.8 11.3 0.00 0.00 0.00 68 1017.3
20260503222359 16 167 3.2 6.4 0.00 0.00 0.00 67 1017.5
20260503221856 16 162 3.2 6.4 0.00 0.00 0.00 68 1017.5
20260503221355 16 232 1.6 12.9 0.00 0.00 0.00 67 1017.3
20260503220850 17 153 3.2 6.4 0.00 0.00 0.00 66 1017.4
20260503220347 17 159 0.0 4.8 0.00 0.00 0.00 67 1017.5
20260503215844 17 215 1.6 6.4 0.00 0.00 0.00 68 1017.6
20260503215341 17 130 0.0 11.3 0.00 0.00 0.00 67 1017.5
20260503214839 16 153 1.6 6.4 0.00 0.00 0.00 68 1017.6
20260503214336 16 162 0.0 6.4 0.00 0.00 0.00 68 1017.4
20260503213833 16 51 1.6 6.4 0.00 0.00 0.00 69 1017.6
20260503213331 16 127 0.0 3.2 0.00 0.00 0.00 69 1017.6
20260503212828 16 96 0.0 4.8 0.00 0.00 0.00 69 1017.7
20260503212326 16 229 3.2 3.2 0.00 0.00 0.00 67 1017.6
20260503211823 16 80 0.0 1.6 0.00 0.00 0.00 69 1017.6
20260503211319 16 60 1.6 6.4 0.00 0.00 0.00 69 1017.6
20260503210819 15 98 1.6 1.6 0.00 0.00 0.00 71 1017.7
20260503210317 15 79 1.6 4.8 0.00 0.00 0.00 71 1017.8
20260503205812 15 273 1.6 4.8 0.00 0.00 0.00 71 1017.8
20260503205309 15 108 1.6 1.6 0.00 0.00 0.00 72 1017.8
20260503204805 15 137 1.6 1.6 0.00 0.00 0.00 73 1018.0
20260503204303 15 215 3.2 6.4 0.00 0.00 0.00 73 1017.8
20260503203800 15 215 0.0 9.7 0.00 0.00 0.00 75 1017.8
20260503203257 15 287 1.6 6.4 0.00 0.00 0.00 74 1017.8
20260503202754 15 35 1.6 3.2 0.00 0.00 0.00 75 1017.6
20260503202252 15 67 1.6 4.8 0.00 0.00 0.00 76 1017.7
20260503201750 15 265 3.2 4.8 0.00 0.00 0.00 76 1017.8
20260503201247 15 270 4.8 11.3 0.00 0.00 0.00 77 1017.8
20260503200744 15 294 9.7 12.9 0.00 0.00 0.00 77 1017.9
20260503200240 15 199 1.6 3.2 0.00 0.00 0.00 77 1017.9
20260503195737 15 241 6.4 9.7 0.00 0.00 0.00 77 1017.8
20260503195234 15 222 8.0 11.3 0.00 0.00 0.00 76 1018.0
20260503194732 16 157 0.0 3.2 0.00 0.00 0.00 76 1018.0
20260503194227 15 218 1.6 9.7 0.00 0.00 0.00 75 1018.0
20260503193723 15 305 1.6 6.4 0.00 0.00 0.00 76 1018.0
20260503193219 15 79 0.0 6.4 0.00 0.00 0.00 76 1017.9
20260503192715 15 167 3.2 4.8 0.00 0.00 0.00 76 1017.9
20260503192210 15 209 1.6 4.8 0.00 0.00 0.00 75 1018.1
20260503191708 16 301 6.4 11.3 0.00 0.00 0.00 75 1018.1
20260503191205 16 232 3.2 6.4 0.00 0.00 0.00 74 1018.0
20260503190701 16 349 3.2 3.2 0.00 0.00 0.00 70 1017.9
20260503190158 16 200 1.6 3.2 0.00 0.00 0.00 70 1017.9
20260503185655 16 356 1.6 3.2 0.00 0.00 0.00 71 1018.0
20260503185150 16 320 1.6 4.8 0.00 0.00 0.00 72 1018.1
20260503184645 16 74 0.0 3.2 0.00 0.00 0.00 72 1017.9
20260503184142 16 98 1.6 3.2 0.00 0.00 0.00 72 1018.2
20260503183638 16 148 0.0 1.6 0.00 0.00 0.00 71 1017.9
20260503183136 16 119 3.2 4.8 0.00 0.00 0.00 73 1018.1
20260503182634 15 132 0.0 3.2 0.00 0.00 0.00 75 1018.3
20260503182132 15 145 1.6 1.6 0.00 0.00 0.00 75 1018.2
20260503181629 15 113 1.6 4.8 0.00 0.00 0.00 76 1018.3
20260503181126 15 149 4.8 9.7 0.00 0.00 0.00 75 1018.3
20260503180622 15 239 3.2 3.2 0.00 0.00 0.00 76 1018.1
20260503180120 15 177 1.6 1.6 0.00 0.00 0.00 77 1018.4
20260503175617 15 70 0.0 0.0 0.00 0.00 0.00 78 1018.4
20260503175114 15 114 0.0 3.2 0.00 0.00 0.00 79 1018.3
20260503174611 15 110 1.6 3.2 0.00 0.00 0.00 79 1018.5
20260503174108 15 106 0.0 0.0 0.00 0.00 0.00 78 1018.4
20260503173603 15 73 0.0 1.6 0.00 0.00 0.00 79 1018.3
20260503173059 15 97 0.0 1.6 0.00 0.00 0.00 79 1018.5
20260503172551 15 93 0.0 1.6 0.00 0.00 0.00 79 1018.4
20260503172048 15 196 0.0 1.6 0.00 0.00 0.00 79 1018.3
20260503171544 14 181 0.0 1.6 0.00 0.00 0.00 80 1018.4
20260503171042 14 221 1.6 3.2 0.00 0.00 0.00 80 1018.5
20260503170538 13 185 0.0 1.6 0.00 0.00 0.00 81 1018.3
20260503150931 13 182 4.8 6.4 0.00 0.00 0.00 84 1018.0
20260503150427 13 149 0.0 0.0 0.00 0.00 0.00 85 1017.7
20260503131320 12 167 0.0 0.0 0.00 0.00 0.00 97 1016.4
20260503130818 12 169 0.0 0.0 0.00 0.00 0.00 97 1016.4
20260503130315 12 172 0.0 0.0 0.00 0.00 0.00 98 1016.4
20260503110709 12 181 0.0 0.0 0.00 0.00 0.00 98 1016.7
20260503110206 12 187 0.0 0.0 0.00 0.00 0.00 98 1016.8
20260503100132 12 128 0.0 0.0 0.00 0.00 0.00 98 1016.4
20260503081522 12 183 0.0 3.2 0.00 0.00 0.00 96 1017.2
20260503081019 12 171 0.0 3.2 0.00 0.00 0.00 96 1017.0
20260503080515 13 181 0.0 1.6 0.00 0.00 0.00 96 1017.0
20260503072449 13 165 0.0 3.2 0.00 0.00 0.00 96 1017.0
20260503071946 13 219 1.6 9.7 0.00 0.00 0.00 96 1016.7
20260503071443 13 200 1.6 1.6 0.00 0.00 0.00 95 1016.7
20260503070938 13 162 0.0 3.2 0.00 0.00 0.00 95 1016.8
20260503070436 13 177 0.0 0.0 0.00 0.00 0.00 95 1016.4
20260503054849 13 187 0.0 3.2 0.00 0.00 0.00 95 1016.7
20260503054345 13 246 1.6 3.2 0.00 0.00 0.00 95 1016.5
20260503053843 13 166 0.0 1.6 0.00 0.00 0.00 95 1016.8
20260503053341 13 168 0.0 1.6 0.00 0.00 0.00 95 1016.6
20260503052837 13 185 0.0 3.2 0.00 0.00 0.00 95 1016.5
20260503052334 13 170 0.0 1.6 0.00 0.00 0.00 95 1016.7
20260503051831 13 186 1.6 3.2 0.00 0.00 0.00 94 1016.8
20260503051327 13 161 0.0 4.8 0.00 0.00 0.00 94 1016.9
20260503050824 13 212 0.0 0.0 0.00 0.00 0.00 94 1016.5
20260503050320 13 142 0.0 0.0 0.00 0.00 0.00 95 1016.6
20260503045818 13 151 0.0 0.0 0.00 0.00 0.00 95 1016.4
20260503045316 13 131 0.0 0.0 0.00 0.00 0.00 95 1016.2
20260503044812 13 149 0.0 0.0 0.00 0.00 0.00 95 1016.2
20260503044309 13 155 0.0 0.0 0.00 0.00 0.00 95 1016.2
20260503043806 13 147 0.0 0.0 0.00 0.00 0.00 95 1016.3
20260503043303 13 167 0.0 1.6 0.00 0.00 0.00 95 1016.3
20260503042759 13 177 0.0 1.6 0.00 0.00 0.00 95 1016.0
20260503042256 13 165 0.0 0.0 0.00 0.00 0.00 95 1015.8
20260503041751 13 167 0.0 0.0 0.00 0.00 0.00 95 1015.7
20260503041249 13 148 0.0 0.0 0.00 0.00 0.00 95 1016.0
20260503040747 13 163 0.0 1.6 0.00 0.00 0.00 95 1015.8
20260503040244 13 173 0.0 0.0 0.00 0.00 0.00 95 1016.0
20260503035741 13 191 0.0 1.6 0.00 0.00 0.00 95 1015.9
20260503035238 13 167 0.0 3.2 0.00 0.00 0.00 95 1015.5
20260503034736 13 173 0.0 0.0 0.00 0.00 0.00 95 1015.6
20260503034232 13 164 0.0 0.0 0.00 0.00 0.00 95 1015.3
20260503033730 13 162 0.0 0.0 0.00 0.00 0.00 95 1015.1
20260503033227 13 166 0.0 3.2 0.00 0.00 0.00 94 1015.2
20260503032725 13 160 0.0 0.0 0.00 0.00 0.00 94 1015.3
20260503032224 13 180 0.0 0.0 0.00 0.00 0.00 94 1014.9
20260503031720 13 165 0.0 3.2 0.00 0.00 0.00 93 1015.1
20260503031219 13 188 0.0 3.2 0.00 0.00 0.00 93 1014.9
20260503030714 13 219 3.2 3.2 0.00 0.00 0.00 92 1015.0
20260503030211 13 129 1.6 4.8 0.00 0.00 0.00 92 1014.9
20260503025708 14 188 1.6 4.8 0.00 0.00 0.00 91 1014.8
20260503025206 14 121 0.0 1.6 0.00 0.00 0.00 90 1014.6
20260503024702 15 162 1.6 4.8 0.00 0.00 0.00 89 1014.9
20260503024200 15 163 0.0 1.6 0.00 0.00 0.00 88 1014.6
20260503023656 15 151 0.0 3.2 0.00 0.00 0.00 87 1014.8
20260503023153 15 218 4.8 6.4 0.00 0.00 0.00 86 1014.5
20260503022649 16 331 0.0 3.2 0.00 0.00 0.00 85 1014.5
20260503022148 16 121 0.0 0.0 0.00 0.00 0.00 84 1014.4
20260503021646 16 163 0.0 3.2 0.00 0.00 0.00 83 1014.4
20260503021142 16 263 1.6 3.2 0.00 0.00 0.00 82 1014.2
20260503020640 16 179 0.0 1.6 0.00 0.00 0.00 81 1014.3
20260503020137 17 153 0.0 0.0 0.00 0.00 0.00 80 1014.3
20260503015634 17 144 0.0 3.2 0.00 0.00 0.00 80 1014.4
20260503015131 17 126 0.0 1.6 0.00 0.00 0.00 79 1014.5
20260503014626 18 249 3.2 4.8 0.00 0.00 0.00 77 1014.1
20260503014125 18 179 3.2 3.2 0.00 0.00 0.00 75 1014.4
20260503013621 19 217 0.0 1.6 0.00 0.00 0.00 74 1014.2
20260503013119 19 168 0.0 3.2 0.00 0.00 0.00 73 1014.2
20260503012616 19 157 0.0 3.2 0.00 0.00 0.00 73 1014.2
20260503012113 19 83 0.0 6.4 0.00 0.00 0.00 74 1014.4
20260503011609 19 257 3.2 6.4 0.00 0.00 0.00 73 1014.3
20260503011107 19 247 4.8 6.4 0.00 0.00 0.00 72 1014.3
20260503010603 20 252 6.4 6.4 0.00 0.00 0.00 72 1014.4
20260503010101 20 218 3.2 3.2 0.00 0.00 0.00 71 1014.4
20260503005557 20 214 3.2 4.8 0.00 0.00 0.00 71 1014.3
20260503005055 20 242 0.0 3.2 0.00 0.00 0.00 70 1014.3
20260503004550 20 173 0.0 3.2 0.00 0.00 0.00 69 1014.4
20260503004049 21 38 1.6 6.4 0.00 0.00 0.00 69 1014.4
20260503003545 21 175 0.0 4.8 0.00 0.00 0.00 68 1014.3
20260503003043 21 170 0.0 4.8 0.00 0.00 0.00 67 1014.3
20260503002539 21 39 0.0 3.2 0.00 0.00 0.00 68 1014.3
20260503002036 21 197 0.0 3.2 0.00 0.00 0.00 68 1014.4
20260503001532 21 318 6.4 9.7 0.00 0.00 0.00 68 1014.5
20260503001031 20 248 4.8 9.7 0.00 0.00 0.00 69 1014.3
20260503000528 21 183 1.6 3.2 0.00 0.00 0.00 67 1014.4
20260503000024 21 237 4.8 6.4 0.00 0.00 0.00 67 1014.4
20260502235521 21 249 3.2 11.3 0.00 0.00 0.00 67 1014.7
20260502235019 21 220 3.2 4.8 0.00 0.00 0.00 66 1014.5
20260502234515 21 216 3.2 4.8 0.00 0.00 0.00 65 1014.6
20260502234012 22 42 1.6 6.4 0.00 0.00 0.00 65 1014.8
20260502233507 22 288 3.2 4.8 0.00 0.00 0.00 65 1014.7
20260502233004 22 42 1.6 3.2 0.00 0.00 0.00 65 1014.7
20260502232500 22 166 0.0 4.8 0.00 0.00 0.00 65 1014.6
20260502231957 21 349 1.6 3.2 0.00 0.00 0.00 66 1015.0
20260502231454 21 273 3.2 11.3 0.00 0.00 0.00 67 1015.1
20260502230952 21 193 4.8 6.4 0.00 0.00 0.00 68 1014.9
20260502230450 21 277 4.8 6.4 0.00 0.00 0.00 68 1015.0
20260502225948 21 182 3.2 6.4 0.00 0.00 0.00 68 1015.0
20260502225444 21 250 1.6 9.7 0.00 0.00 0.00 66 1015.1
20260502224941 21 218 1.6 4.8 0.00 0.00 0.00 67 1015.3
20260502224437 21 247 4.8 9.7 0.00 0.00 0.00 66 1015.2
20260502223934 21 196 1.6 12.9 0.00 0.00 0.00 67 1015.5